Weather History for KMYL - May, 2014

Change the Weather History Date:

Monday, May 12, 2014

  Actual Average Record
Temperature  
Mean Temperature 43 °F 45 °F  
Max Temperature 58 °F 58 °F 84 °F (1993)
Min Temperature 28 °F 32 °F 22 °F (1943)
Degree Days  
Heating Degree Days 22 20  
Month to date heating degree days 244 259  
Since 1 July heating degree days 8038 8894  
Cooling Degree Days 0 0  
Month to date cooling degree days 0 0  
Year to date cooling degree days 0 0  
Moisture  
Dew Point 19 °F    
Average Humidity 47    
Maximum Humidity 78    
Minimum Humidity 15    
Precipitation  
Precipitation 0.00 in 0.07 in 0.75 in (2003)
Month to date precipitation 0.90 0.82  
Year to date precipitation 14.19 8.41  
Sea Level Pressure  
Sea Level Pressure 30.32 in    
Wind  
Wind Speed 7 mph (NNW)    
Max Wind Speed 16 mph    
Max Gust Speed 20 mph    
Visibility 10 miles    
Events      
T = Trace of Precipitation, MM = Missing Value Source: NWS Daily Summary

Daily Weather History Graph

Daily Weather History Graph

Search for Another Location

Airport or City:

Trip Planner

Search our weather history database for the weather conditions in past years. The results will help you decide how hot, cold, wet, or windy it might be!

Date:

Astronomy

May. 12, 2014 Rise Set
Actual Time 6:19 AM MDT 9:03 PM MDT
Civil Twilight 5:45 AM MDT 9:37 PM MDT
Nautical Twilight 5:02 AM MDT 10:19 PM MDT
Astronomical Twilight 4:13 AM MDT 11:09 PM MDT
Moon 7:00 PM MDT (5/12) 5:07 AM MDT (5/12)
Length of Visible Light 15h 51m
Length of Day
14h 44m
Waxing Gibbous, 95% of the Moon is Illuminated
May 12
Waxing Gibbous
May 14
Full
May 21
Last Quarter
May 28
New
Jun 5
First Quarter

Hourly Weather History & Observations

Time (MDT) Temp. Windchill Dew Point Humidity Pressure Visibility Wind Dir Wind Speed Gust Speed Precip Events Conditions
12:51 AM 37.0 °F 31.6 °F 27.0 °F 67% 30.25 in 10.0 mi North 6.9 mph - N/A   Clear
1:51 AM 35.1 °F 32.2 °F 25.0 °F 67% 30.26 in 10.0 mi North 3.5 mph - N/A   Clear
2:51 AM 35.1 °F 30.1 °F 25.0 °F 67% 30.27 in 10.0 mi North 5.8 mph - N/A   Clear
3:51 AM 32.0 °F 27.5 °F 25.0 °F 75% 30.28 in 10.0 mi NNW 4.6 mph - N/A   Clear
4:51 AM 33.1 °F 27.7 °F 24.1 °F 70% 30.29 in 10.0 mi North 5.8 mph - N/A   Clear
5:51 AM 30.0 °F - 23.0 °F 75% 30.33 in 10.0 mi Calm Calm - N/A   Clear
6:51 AM 30.9 °F 26.2 °F 24.1 °F 76% 30.36 in 10.0 mi WNW 4.6 mph - N/A   Clear
7:51 AM 36.0 °F 30.3 °F 21.9 °F 57% 30.35 in 10.0 mi North 6.9 mph - N/A   Clear
8:51 AM 39.9 °F 37.8 °F 19.9 °F 45% 30.33 in 10.0 mi Variable 3.5 mph - N/A   Clear
9:51 AM 43.0 °F 38.8 °F 19.0 °F 38% 30.33 in 10.0 mi NW 6.9 mph - N/A   Clear
10:51 AM 46.0 °F 43.9 °F 18.0 °F 33% 30.33 in 10.0 mi Variable 4.6 mph - N/A   Clear
11:51 AM 48.0 °F - 19.0 °F 32% 30.34 in 10.0 mi Variable 5.8 mph - N/A   Clear
12:51 PM 50.0 °F - 12.9 °F 23% 30.34 in 10.0 mi WSW 3.5 mph - N/A   Clear
1:51 PM 53.1 °F - 12.9 °F 20% 30.33 in 10.0 mi WNW 8.1 mph - N/A   Clear
2:51 PM 55.0 °F - 14.0 °F 20% 30.33 in 10.0 mi NNW 10.4 mph - N/A   Clear
3:51 PM 57.0 °F - 12.0 °F 17% 30.32 in 10.0 mi NNW 13.8 mph - N/A   Clear
4:51 PM 57.0 °F - 10.0 °F 15% 30.32 in 10.0 mi NW 11.5 mph 19.6 mph N/A   Clear
5:51 PM 57.0 °F - 12.0 °F 17% 30.33 in 10.0 mi NW 13.8 mph - N/A   Clear
6:51 PM 57.0 °F - 14.0 °F 18% 30.32 in 10.0 mi NNW 11.5 mph - N/A   Clear
7:51 PM 55.0 °F - 12.9 °F 19% 30.32 in 10.0 mi NNW 10.4 mph - N/A   Clear
8:51 PM 52.0 °F - 12.9 °F 21% 30.33 in 10.0 mi North 8.1 mph - N/A   Clear
9:51 PM 45.0 °F 42.6 °F 21.9 °F 40% 30.36 in 10.0 mi NNW 4.6 mph - N/A   Clear
10:51 PM 45.0 °F 42.6 °F 25.0 °F 46% 30.37 in 10.0 mi North 4.6 mph - N/A   Clear
11:51 PM 43.0 °F 39.5 °F 27.0 °F 53% 30.38 in 10.0 mi North 5.8 mph - N/A   Clear